[[{"header":{"parameterUnit":"m.s-1","parameterCategory":1,"la1":30.2991,"la2":30.254,"lo1":-89.0895,"lo2":-89.0444,"dy":0.0017,"dx":0.0017,"nx":28,"ny":28,"refTime":"2023-10-02T09:00:00:Z","depth":0,"parameterNumber":2,"parameterNumberName":"U-component_of_WINDS"},"data":[0,0,0,0,0,0,0,0,0,0,0,0,0,0,0,0,0,0,0,0,0,0,0,0,0,0,0,0,0,0,0,0,0,0,0,0,0,0,0,0,0,0,0,0,0,0,0,0,0,0,0,0,0,0,0,0,0,0,-4.7989,-4.7989,0,-4.7955,-4.7954,-4.7954,-4.7797,-4.7793,-4.779,-4.7786,-4.7754,-4.7757,-4.7759,0,0,0,0,0,0,0,0,0,0,0,0,0,-4.7924,-4.7926,-4.7989,-4.7989,-4.7988,-4.7955,-4.7954,-4.7954,-4.7798,-4.7793,-4.7789,-4.7784,-4.7753,-4.7756,-4.776,0,0,0,0,0,0,0,0,0,0,0,0,0,-4.7927,-4.7926,-4.7989,-4.7906,-4.7898,-4.7955,-4.7954,-4.7954,-4.7799,-4.7793,-4.7788,-4.7782,-4.7752,-4.7756,-4.776,-4.7894,0,0,-4.7772,-4.7773,0,0,0,0,0,0,0,0,-4.7927,-4.793,-4.7919,-4.7912,-4.7903,-4.7874,-4.7919,-4.7934,-4.78,-4.7837,-4.7786,-4.778,-4.7799,-4.7799,-4.7804,-4.7893,-4.7892,-4.7772,-4.7774,-4.7776,-4.7777,0,0,0,0,0,0,0,-4.7927,-4.793,-4.7975,-4.7919,-4.791,-4.7872,-4.7866,-4.7921,-4.7849,-4.7833,-4.7822,-4.7819,-4.7794,-4.7801,-4.7802,-4.7891,-4.7772,-4.7775,-4.7778,-4.7779,-4.8091,-4.8097,0,0,0,0,0,0,-4.7938,-4.7931,-4.7977,-4.7974,-4.7902,-4.7878,-4.7871,-4.7889,-4.7848,-4.7837,-4.7824,-4.7812,-4.7797,-4.7798,-4.7801,-4.7957,-4.7776,-4.778,-4.7782,-4.8085,-4.8093,-4.8099,0,0,0,0,0,0,-4.7937,-4.7944,-4.7978,-4.795,-4.7951,-4.7885,-4.7906,-4.7892,-4.7899,-4.7841,-4.7828,-4.7845,-4.7793,-4.7795,-4.7873,-4.7954,-4.7781,-4.7785,-4.8078,-4.8088,-4.8096,-4.8271,0,0,0,0,0,0,-4.7936,-4.7944,-4.7994,-4.7952,-4.7953,-4.805,-4.7911,-4.7895,-4.7905,-4.789,-4.7857,-4.7847,-4.7789,-4.7868,-4.7877,-4.7956,-4.7788,-4.8071,-4.8082,-4.8093,-4.8258,-4.8285,-4.8308,0,0,0,0,0,-4.7934,-4.8045,-4.7997,-4.8003,-4.8013,-4.8055,-4.8056,-4.7986,-4.7913,-4.7963,-4.7926,-4.7848,-4.7944,-4.7877,-4.7886,-4.7968,-4.8065,-4.8079,-4.8092,-4.8247,-4.828,-4.8308,0,0,0,0,0,0,-4.8098,-4.8037,-4.7984,-4.8084,-4.8076,-4.8028,-4.8089,-4.8023,-4.8036,-4.802,-4.7934,-4.7928,-4.8019,-4.8,-4.7928,-4.8097,-4.7991,-4.8007,-4.8106,-4.8137,-4.8162,-4.8165,-4.7791,0,0,0,0,0,-4.8146,-4.8183,-4.8128,-4.8222,-4.822,-4.8156,-4.8171,-4.8118,-4.8107,-4.8103,-4.8071,-4.8064,-4.8093,-4.8113,-4.8136,-4.8254,-4.8246,-4.8315,-4.834,-4.8361,-4.8376,-4.844,-4.8471,-4.8143,-4.8143,-4.8143,0,0,-4.8245,-4.8216,-4.8245,-4.8254,-4.8241,-4.8284,-4.8154,-4.8204,-4.8235,-4.811,-4.8182,-4.8159,-4.8146,-4.8245,-4.8287,-4.8232,-4.8465,-4.8378,-4.8395,-4.8399,-4.8457,-4.8488,-4.8516,-4.8152,-4.815,-4.8149,0,0,-4.8447,-4.8428,-4.8505,-4.8495,-4.8478,-4.8434,-4.8453,-4.8416,-4.8396,-4.8466,-4.8375,-4.8411,-4.8461,-4.8456,-4.846,-4.8663,-4.8593,-4.8673,-4.8805,-4.8868,-4.8894,-4.8917,-4.8991,-4.9019,-4.8688,-4.8688,-4.8689,0,-4.8572,-4.8631,-4.8553,-4.861,-4.8617,-4.8506,-4.8584,-4.8579,-4.8571,-4.8579,-4.8518,-4.8581,-4.8563,-4.8661,-4.8711,-4.8717,-4.8737,-4.8677,-4.8896,-4.8918,-4.8938,-4.9008,-4.9036,-4.8698,-4.8697,-4.8696,-4.8695,0,-4.8788,-4.883,-4.8895,-4.8889,-4.8904,-4.8971,-4.8905,-4.893,-4.8876,-4.884,-4.8914,-4.889,-4.8907,-4.8926,-4.8874,-4.9017,-4.8984,-4.8911,-4.8803,-4.8981,-4.9045,-4.9072,-4.8713,-4.8709,-4.8706,-4.8704,0,0,-4.9092,-4.9043,-4.9068,-4.9065,-4.9039,-4.9071,-4.9134,-4.915,-4.9174,-4.9173,-4.9225,-4.9271,-4.9204,-4.9209,-4.9155,-4.9211,-4.9376,-4.9131,-4.9129,-4.9179,-4.9535,-4.9592,-4.9624,-4.9329,-4.9333,-4.9337,-4.9537,0,-4.9286,-4.9391,-4.9323,-4.9439,-4.9479,-4.9375,-4.943,-4.9421,-4.9389,-4.942,-4.9384,-4.942,-4.9327,-4.933,-4.9379,-4.9346,-4.9447,-4.933,-4.9379,-4.9381,-4.9387,-4.9657,-4.9717,-4.9907,-4.9562,-4.9566,-4.9569,0,-4.9527,-4.9536,-4.9656,-4.9624,-4.9638,-4.9689,-4.97,-4.9729,-4.9718,-4.9691,-4.9698,-4.9631,-4.9693,-4.9586,-4.9671,-4.9593,-4.9609,-4.9596,-4.9602,-4.9605,-4.9487,-4.967,-4.9965,-4.9995,-4.9608,-4.9605,-4.9602,0,-4.974,-4.9782,-4.986,-4.986,-4.9824,-4.9862,-4.9849,-4.9832,-4.9847,-4.9857,-4.9866,-4.9883,-4.9893,-4.9909,-4.985,-4.9777,-4.9944,-4.9832,-4.9926,-4.9928,-4.9967,-4.9965,-5.0271,-4.9975,-4.9974,-4.9974,-4.9973,0,-4.9965,-5.0043,-4.9955,-5.0003,-5.0088,-5.0011,-5.0098,-5.0073,-5.0059,-5.0102,-5.0013,-5.0056,-4.9974,-5.0009,-4.9963,-5.0042,-5.0047,-5.0029,-5.0016,-5.0038,-5.0041,-5.0048,-5.0034,-4.9981,-4.998,-4.9978,-4.9977,0,-5.0217,-5.0161,-5.0239,-5.0199,-5.019,-5.0255,-5.0221,-5.0265,-5.0227,-5.0283,-5.0292,-5.0234,-5.0271,-5.0213,-5.0243,-5.0212,-5.0323,-5.0289,-5.0327,-5.0318,-5.0416,-5.0408,-5.0738,-5.0779,-5.0456,-5.0459,-5.0461,0,-5.0366,-5.0423,-5.0389,-5.0411,-5.0403,-5.044,-5.0455,-5.0381,-5.0401,-5.0393,-5.0439,-5.0468,-5.0487,-5.0551,-5.0513,-5.0537,-5.0504,-5.0618,-5.0507,-5.0528,-5.0508,-5.0506,-5.0513,-5.0641,-5.0645,-5.0648,-5.0651,0,-5.0636,-5.0605,-5.0629,-5.0646,-5.0666,-5.0675,-5.0677,-5.0701,-5.0624,-5.0651,-5.0687,-5.0702,-5.0733,-5.0764,-5.0778,-5.0766,-5.0698,-5.0686,-5.0709,-5.0733,-5.0754,-5.0746,-5.0391,-5.0679,-5.0676,-5.0674,-5.0673,-5.0672,-5.0841,-5.0889,-5.0873,-5.0904,-5.0898,-5.0903,-5.0943,-5.0911,-5.0939,-5.0959,-5.0914,-5.0962,-5.0951,-5.0963,-5.0958,-5.0996,-5.0946,-5.0979,-5.0988,-5.0998,-5.1015,-5.0747,-5.0998,-5.0997,-5.0996,-5.0996,-5.0995,0,-5.1109,-5.1093,-5.1123,-5.1129,-5.1155,-5.1086,-5.1086,-5.1112,-5.1155,-5.115,-5.1171,-5.1215,-5.1245,-5.121,-5.1234,-5.1271,-5.1241,-5.128,-5.1278,-5.1277,-5.1057,-5.1035,-5.1305,-5.1305,-5.1305,-5.1305,-5.1305,-5.1305,-5.1251,-5.1328,-5.1296,-5.1371,-5.1355,-5.1401,-5.1407,-5.1412,-5.1408,-5.146,-5.1485,-5.1461,-5.1445,-5.1468,-5.1493,-5.1482,-5.1496,-5.1548,-5.1527,-5.1322,-5.1292,-5.1263,-5.1242,-5.1551,-5.1552,-5.1743,-5.1745,-5.1747]},{"header":{"parameterUnit":"m.s-1","parameterCategory":1,"la1":30.2991,"la2":30.254,"lo1":-89.0895,"lo2":-89.0444,"dy":0.0017,"dx":0.0017,"nx":28,"ny":28,"refTime":"2023-10-02T09:00:00:Z","depth":0,"parameterNumber":3,"parameterNumberName":"V-component_of_WINDS"},"data":[0,0,0,0,0,0,0,0,0,0,0,0,0,0,0,0,0,0,0,0,0,0,0,0,0,0,0,0,0,0,0,0,0,0,0,0,0,0,0,0,0,0,0,0,0,0,0,0,0,0,0,0,0,0,0,0,0,0,0.7157,0.7156,0,0.7095,0.7094,0.7093,0.7097,0.7098,0.7099,0.71,0.7029,0.7026,0.7024,0,0,0,0,0,0,0,0,0,0,0,0,0,0.7274,0.7272,0.7157,0.7156,0.7155,0.7095,0.7094,0.7093,0.7097,0.7098,0.7099,0.71,0.703,0.7027,0.7023,0,0,0,0,0,0,0,0,0,0,0,0,0,0.7218,0.7271,0.7157,0.715,0.7149,0.7095,0.7094,0.7093,0.7097,0.7098,0.71,0.7101,0.7031,0.7027,0.7023,0.6969,0,0,0.701,0.7008,0,0,0,0,0,0,0,0,0.7222,0.7214,0.7152,0.7151,0.7149,0.7105,0.7109,0.7051,0.7096,0.7116,0.71,0.7102,0.7053,0.7047,0.7032,0.6966,0.6963,0.701,0.7007,0.7005,0.7004,0,0,0,0,0,0,0,0.7225,0.7217,0.7132,0.7151,0.7149,0.7149,0.7142,0.7098,0.7077,0.7115,0.7115,0.7108,0.7052,0.7036,0.703,0.6962,0.701,0.7006,0.7004,0.7002,0.6847,0.6846,0,0,0,0,0,0,0.7232,0.722,0.7134,0.713,0.719,0.7145,0.7138,0.7118,0.7078,0.7073,0.7107,0.7108,0.7042,0.7035,0.7028,0.6961,0.7005,0.7002,0.6999,0.6849,0.6847,0.6845,0,0,0,0,0,0,0.7234,0.7224,0.7137,0.7175,0.7164,0.7142,0.7119,0.7116,0.71,0.7072,0.7067,0.7094,0.7043,0.7034,0.6984,0.6958,0.7,0.6996,0.6851,0.6848,0.6846,0.6828,0,0,0,0,0,0,0.7238,0.7225,0.7205,0.7175,0.7162,0.7095,0.7117,0.7114,0.7093,0.7095,0.7059,0.7054,0.7043,0.699,0.698,0.6954,0.6993,0.6853,0.685,0.6847,0.683,0.6825,0.682,0,0,0,0,0,0.7242,0.7201,0.7204,0.7194,0.7137,0.7094,0.7086,0.7077,0.7091,0.707,0.7053,0.7055,0.6964,0.6985,0.6973,0.6945,0.6854,0.6851,0.6847,0.6833,0.6826,0.682,0,0,0,0,0,0,0.7226,0.7197,0.72,0.7149,0.7124,0.7095,0.7068,0.707,0.7039,0.7041,0.7029,0.7021,0.697,0.6953,0.6978,0.6891,0.6911,0.6905,0.6904,0.6897,0.6892,0.6896,0.6989,0,0,0,0,0,0.7218,0.7187,0.7162,0.7119,0.7107,0.709,0.7071,0.7066,0.7039,0.7027,0.7006,0.6978,0.6943,0.6919,0.6886,0.6829,0.682,0.6804,0.6799,0.6795,0.6789,0.6757,0.6749,0.6833,0.6833,0.6833,0,0,0.7198,0.7178,0.7159,0.7116,0.7096,0.7062,0.7081,0.7044,0.7018,0.7021,0.6973,0.6957,0.6924,0.6871,0.6846,0.6855,0.6764,0.6791,0.6788,0.6783,0.6752,0.6744,0.6737,0.6831,0.6831,0.6832,0,0,0.7144,0.7128,0.709,0.707,0.7041,0.7031,0.7022,0.6992,0.6982,0.6935,0.6936,0.6904,0.6845,0.6821,0.6801,0.6742,0.6742,0.6731,0.6703,0.6672,0.6665,0.6659,0.6635,0.6627,0.6726,0.6726,0.6726,0,0.7122,0.7074,0.7069,0.7033,0.7013,0.7017,0.6978,0.6958,0.6919,0.6904,0.6916,0.6841,0.682,0.676,0.6746,0.6731,0.6718,0.6733,0.6667,0.6661,0.6655,0.6632,0.6624,0.6724,0.6724,0.6725,0.6725,0,0.7048,0.7014,0.6987,0.6951,0.6929,0.6891,0.6878,0.6856,0.6854,0.6841,0.6792,0.6768,0.6729,0.6715,0.6711,0.6655,0.6661,0.667,0.6689,0.6646,0.6624,0.6615,0.6722,0.6723,0.6723,0.6724,0,0,0.6979,0.6944,0.6933,0.6917,0.6887,0.6859,0.6822,0.6786,0.6766,0.674,0.6706,0.6656,0.6665,0.6643,0.6637,0.661,0.6562,0.6622,0.6621,0.6609,0.6496,0.6487,0.6477,0.6564,0.6562,0.6561,0.6497,0,0.692,0.6855,0.6851,0.6791,0.6759,0.6764,0.6731,0.6707,0.6695,0.6665,0.6651,0.6615,0.6631,0.6617,0.6591,0.6573,0.6538,0.6578,0.6529,0.6527,0.6534,0.6466,0.6456,0.6397,0.6489,0.6488,0.6487,0,0.6842,0.6816,0.6754,0.6728,0.6715,0.6685,0.6652,0.6624,0.6597,0.6591,0.6567,0.6566,0.6525,0.6548,0.6491,0.6518,0.6498,0.6487,0.6484,0.6476,0.6502,0.6453,0.6379,0.6369,0.6474,0.6475,0.6476,0,0.6796,0.6745,0.6701,0.6687,0.6657,0.6636,0.6622,0.6597,0.6576,0.6547,0.6533,0.6499,0.6479,0.6452,0.6441,0.646,0.6383,0.6406,0.6374,0.6374,0.6354,0.6355,0.6272,0.6347,0.6347,0.6347,0.6348,0,0.6729,0.6689,0.6679,0.6652,0.6608,0.6603,0.6559,0.6546,0.6525,0.6493,0.6496,0.6466,0.6455,0.6422,0.6413,0.6366,0.6357,0.6349,0.6346,0.6347,0.6347,0.633,0.6333,0.6345,0.6346,0.6346,0.6346,0,0.6667,0.6659,0.6611,0.6588,0.6581,0.6549,0.6528,0.6501,0.6491,0.6451,0.6442,0.6425,0.6387,0.6375,0.6328,0.6322,0.6266,0.6269,0.6275,0.6274,0.6241,0.6243,0.6142,0.6128,0.6215,0.6214,0.6214,0,0.6623,0.6593,0.6568,0.6549,0.6534,0.6503,0.6482,0.6477,0.6455,0.6424,0.6399,0.6363,0.6333,0.6272,0.6254,0.6219,0.6218,0.6186,0.6213,0.6214,0.6214,0.6215,0.6211,0.6179,0.6178,0.6178,0.6177,0,0.6545,0.6543,0.6515,0.6485,0.6461,0.6437,0.6413,0.6396,0.6388,0.6363,0.6326,0.6303,0.6257,0.622,0.6184,0.6167,0.6169,0.617,0.616,0.6158,0.6162,0.6156,0.6258,0.6171,0.6171,0.6172,0.6172,0.6172,0.6489,0.6463,0.6441,0.6409,0.6392,0.637,0.6343,0.6331,0.6301,0.6265,0.6264,0.6223,0.6197,0.615,0.6132,0.6099,0.6107,0.6094,0.6089,0.6085,0.6081,0.6171,0.6092,0.6093,0.6093,0.6093,0.6093,0,0.6408,0.6396,0.6367,0.6335,0.631,0.6319,0.6293,0.627,0.6235,0.6213,0.6184,0.6141,0.6106,0.6087,0.6051,0.6028,0.6027,0.6018,0.6017,0.6013,0.6077,0.6088,0.6018,0.6018,0.6019,0.6019,0.6019,0.6019,0.6363,0.6319,0.6315,0.6262,0.6249,0.6211,0.6195,0.6175,0.6157,0.6109,0.6081,0.607,0.6048,0.6011,0.5978,0.5973,0.5958,0.5947,0.5943,0.6001,0.6009,0.6016,0.6026,0.5945,0.5945,0.5881,0.5881,0.588]}]]